ARG1613 SAZM-SABE

Flight info

Callsign ARG1613
Flight time 0h 42m
Altitude 31000
Route PULPA1G PULPA DCT TENIL TENIL8R
Aircraft B738/M-MSDFGHILRVWS/LB1

Departure

Time 2026-04-22 23:20
Airport Ástor Piazzola International Airport (SAZM)

Arrival

Time 2026-04-23 00:02
Airport Aeroparque Jorge Newbery (SABE)
Time Latitude Longitude Altitude Speed Heading
2026-04-22 22:48 -37.93324 -57.58081 52 ft 0 kts 304°
2026-04-22 23:10 -37.93325 -57.58078 52 ft 3 kts 303°
2026-04-22 23:10 -37.93333 -57.58050 52 ft 4 kts 253°
2026-04-22 23:10 -37.93321 -57.58030 50 ft 4 kts 181°
2026-04-22 23:10 -37.93316 -57.58030 52 ft 1 kts 175°
2026-04-22 23:14 -37.93321 -57.58030 52 ft 2 kts 175°
2026-04-22 23:14 -37.93349 -57.58025 51 ft 5 kts 162°
2026-04-22 23:14 -37.93381 -57.57973 51 ft 10 kts 120°
2026-04-22 23:14 -37.93422 -57.57880 52 ft 15 kts 119°
2026-04-22 23:15 -37.93484 -57.57740 52 ft 19 kts 119°
2026-04-22 23:15 -37.93549 -57.57592 51 ft 19 kts 119°
2026-04-22 23:15 -37.93613 -57.57449 52 ft 18 kts 119°
2026-04-22 23:15 -37.93674 -57.57310 50 ft 18 kts 119°
2026-04-22 23:16 -37.93732 -57.57178 49 ft 17 kts 119°
2026-04-22 23:16 -37.93790 -57.57049 52 ft 16 kts 119°
2026-04-22 23:16 -37.93844 -57.56925 48 ft 16 kts 119°
2026-04-22 23:16 -37.93897 -57.56806 52 ft 15 kts 119°
2026-04-22 23:17 -37.93931 -57.56730 49 ft 15 kts 119°
2026-04-22 23:17 -37.93997 -57.56582 50 ft 14 kts 120°
2026-04-22 23:17 -37.94033 -57.56474 50 ft 13 kts 91°
2026-04-22 23:17 -37.94001 -57.56374 49 ft 12 kts 59°
2026-04-22 23:18 -37.93968 -57.56320 45 ft 8 kts 36°
2026-04-22 23:18 -37.93940 -57.56303 44 ft 1 kts 354°
2026-04-22 23:18 -37.93936 -57.56309 46 ft 1 kts 306°
2026-04-22 23:18 -37.93934 -57.56314 46 ft 0 kts 302°
2026-04-22 23:19 -37.93929 -57.56325 44 ft 8 kts 302°
2026-04-22 23:19 -37.93767 -57.56638 48 ft 79 kts 302°
2026-04-22 23:19 -37.93346 -57.57464 45 ft 141 kts 304°
2026-04-22 23:19 -37.92753 -57.58570 536 ft 147 kts 304°
2026-04-22 23:20 -37.92218 -57.59631 1291 ft 142 kts 300°
2026-04-22 23:20 -37.91673 -57.60784 1706 ft 164 kts 298°
2026-04-22 23:20 -37.91031 -57.62112 2098 ft 184 kts 300°
2026-04-22 23:20 -37.90135 -57.63306 2665 ft 199 kts 326°
2026-04-22 23:21 -37.88670 -57.63552 2888 ft 237 kts
2026-04-22 23:21 -37.86989 -57.62839 3115 ft 263 kts
2026-04-22 23:21 -37.85187 -57.62681 3781 ft 264 kts 350°
2026-04-22 23:21 -37.83346 -57.62871 4588 ft 262 kts 349°
2026-04-22 23:22 -37.81557 -57.63066 5383 ft 264 kts 348°
2026-04-22 23:22 -37.79672 -57.63289 5920 ft 275 kts 348°
2026-04-22 23:22 -37.77791 -57.63519 6906 ft 268 kts 347°
2026-04-22 23:22 -37.75924 -57.63731 7622 ft 274 kts 347°
2026-04-22 23:23 -37.73965 -57.63986 8084 ft 289 kts 347°
2026-04-22 23:23 -37.71951 -57.64209 9035 ft 286 kts 348°
2026-04-22 23:23 -37.69975 -57.64364 9995 ft 286 kts 348°
2026-04-22 23:23 -37.67936 -57.64488 10535 ft 301 kts 349°
2026-04-22 23:24 -37.65814 -57.64597 10938 ft 318 kts 350°
2026-04-22 23:24 -37.63544 -57.64693 11377 ft 333 kts 350°
2026-04-22 23:24 -37.61198 -57.64804 11975 ft 342 kts 350°
2026-04-22 23:24 -37.58794 -57.64925 12652 ft 348 kts 349°
2026-04-22 23:25 -37.56367 -57.65056 13524 ft 349 kts 349°
2026-04-22 23:25 -37.53928 -57.65182 14337 ft 352 kts 349°
2026-04-22 23:25 -37.51456 -57.65313 15022 ft 358 kts 349°
2026-04-22 23:25 -37.48947 -57.65449 15748 ft 362 kts 349°
2026-04-22 23:26 -37.46427 -57.65573 16600 ft 363 kts 349°
2026-04-22 23:26 -37.43910 -57.65697 17399 ft 364 kts 349°
2026-04-22 23:26 -37.41362 -57.65827 18209 ft 366 kts 349°
2026-04-22 23:26 -37.38804 -57.65961 18875 ft 369 kts 349°
2026-04-22 23:27 -37.36258 -57.66099 19526 ft 372 kts 349°
2026-04-22 23:27 -37.33663 -57.66241 20186 ft 374 kts 349°
2026-04-22 23:27 -37.31051 -57.66384 20830 ft 377 kts 349°
2026-04-22 23:27 -37.28416 -57.66527 21447 ft 380 kts 349°
2026-04-22 23:28 -37.25759 -57.66672 22047 ft 383 kts 348°
2026-04-22 23:28 -37.23089 -57.66818 22645 ft 385 kts 348°
2026-04-22 23:28 -37.20407 -57.66963 23345 ft 385 kts 348°
2026-04-22 23:28 -37.17704 -57.67111 23868 ft 388 kts 348°
2026-04-22 23:29 -37.14990 -57.67260 24309 ft 392 kts 348°
2026-04-22 23:29 -37.12256 -57.67410 24782 ft 395 kts 348°
2026-04-22 23:29 -37.09507 -57.67558 25277 ft 396 kts 347°
2026-04-22 23:29 -37.06748 -57.67707 25747 ft 398 kts 347°
2026-04-22 23:30 -37.03976 -57.67858 26165 ft 401 kts 347°
2026-04-22 23:30 -37.01186 -57.68010 26670 ft 401 kts 347°
2026-04-22 23:30 -36.98409 -57.68168 27282 ft 397 kts 346°
2026-04-22 23:30 -36.95692 -57.68408 27954 ft 392 kts 344°
2026-04-22 23:31 -36.92990 -57.68702 28612 ft 388 kts 343°
2026-04-22 23:31 -36.90306 -57.69010 29218 ft 386 kts 343°
2026-04-22 23:31 -36.87636 -57.69319 29792 ft 385 kts 343°
2026-04-22 23:31 -36.84973 -57.69622 30339 ft 383 kts 342°
2026-04-22 23:32 -36.82315 -57.69917 30785 ft 382 kts 342°
2026-04-22 23:32 -36.79664 -57.70209 31063 ft 383 kts 342°
2026-04-22 23:32 -36.74395 -57.70777 31083 ft 382 kts 342°
2026-04-22 23:33 -36.69098 -57.71345 31101 ft 382 kts 342°
2026-04-22 23:33 -36.63796 -57.71910 31071 ft 383 kts 342°
2026-04-22 23:34 -36.58492 -57.72474 31099 ft 383 kts 343°
2026-04-22 23:34 -36.53171 -57.73038 31108 ft 383 kts 343°
2026-04-22 23:35 -36.47884 -57.73597 31107 ft 383 kts 343°
2026-04-22 23:35 -36.42566 -57.74159 31109 ft 383 kts 343°
2026-04-22 23:36 -36.37253 -57.74720 31115 ft 383 kts 342°
2026-04-22 23:36 -36.31943 -57.75279 31114 ft 383 kts 342°
2026-04-22 23:37 -36.26638 -57.75837 31116 ft 382 kts 342°
2026-04-22 23:37 -36.21357 -57.76389 31112 ft 374 kts 343°
2026-04-22 23:38 -36.18812 -57.76644 31023 ft 361 kts 342°
2026-04-22 23:38 -36.16323 -57.76898 30585 ft 359 kts 342°
2026-04-22 23:38 -36.13805 -57.77171 29802 ft 366 kts 343°
2026-04-22 23:38 -36.11266 -57.77446 29172 ft 366 kts 343°
2026-04-22 23:39 -36.08741 -57.77712 28693 ft 363 kts 343°
2026-04-22 23:39 -36.06238 -57.77972 28234 ft 359 kts 343°
2026-04-22 23:39 -36.03758 -57.78230 27713 ft 356 kts 343°
2026-04-22 23:39 -36.01291 -57.78487 27188 ft 355 kts 343°
2026-04-22 23:40 -35.98835 -57.78745 26674 ft 354 kts 344°
2026-04-22 23:40 -35.96384 -57.79002 26217 ft 352 kts 344°
2026-04-22 23:40 -35.93952 -57.79255 25800 ft 349 kts 344°
2026-04-22 23:40 -35.91589 -57.79685 25353 ft 338 kts 337°
2026-04-22 23:41 -35.89306 -57.80351 24918 ft 335 kts 336°
2026-04-22 23:41 -35.87079 -57.81039 24496 ft 333 kts 336°
2026-04-22 23:41 -35.84833 -57.81737 24078 ft 332 kts 336°
2026-04-22 23:41 -35.82597 -57.82427 23629 ft 331 kts 336°
2026-04-22 23:42 -35.80367 -57.83108 23116 ft 330 kts 336°
2026-04-22 23:42 -35.78143 -57.83782 22648 ft 328 kts 337°
2026-04-22 23:42 -35.75928 -57.84447 22205 ft 326 kts 337°
2026-04-22 23:42 -35.73730 -57.85104 21767 ft 324 kts 337°
2026-04-22 23:43 -35.71538 -57.85758 21307 ft 323 kts 337°
2026-04-22 23:43 -35.69354 -57.86408 20867 ft 322 kts 337°
2026-04-22 23:43 -35.67181 -57.87054 20455 ft 320 kts 337°
2026-04-22 23:43 -35.65018 -57.87696 20045 ft 318 kts 337°
2026-04-22 23:44 -35.62896 -57.88325 19618 ft 317 kts 337°
2026-04-22 23:44 -35.60757 -57.88958 19234 ft 315 kts 338°
2026-04-22 23:44 -35.58633 -57.89585 18849 ft 313 kts 338°
2026-04-22 23:44 -35.56516 -57.90212 18463 ft 312 kts 338°
2026-04-22 23:45 -35.54406 -57.90837 18010 ft 311 kts 338°
2026-04-22 23:45 -35.52304 -57.91458 17566 ft 310 kts 338°
2026-04-22 23:45 -35.50209 -57.92078 17117 ft 310 kts 338°
2026-04-22 23:45 -35.48117 -57.92696 16682 ft 309 kts 338°
2026-04-22 23:46 -35.46027 -57.93315 16209 ft 310 kts 338°
2026-04-22 23:46 -35.43929 -57.93934 15754 ft 309 kts 339°
2026-04-22 23:46 -35.41835 -57.94552 15356 ft 308 kts 339°
2026-04-22 23:46 -35.39749 -57.95166 14952 ft 307 kts 339°
2026-04-22 23:47 -35.37667 -57.95779 14498 ft 309 kts 339°
2026-04-22 23:47 -35.35603 -57.96385 14123 ft 308 kts 340°
2026-04-22 23:47 -35.33526 -57.96996 13733 ft 306 kts 340°
2026-04-22 23:47 -35.31455 -57.97603 13337 ft 305 kts 340°
2026-04-22 23:48 -35.29405 -57.98205 12957 ft 302 kts 340°
2026-04-22 23:48 -35.27368 -57.98802 12601 ft 300 kts 340°
2026-04-22 23:48 -35.25344 -57.99395 12251 ft 297 kts 340°
2026-04-22 23:48 -35.23338 -57.99984 11880 ft 296 kts 340°
2026-04-22 23:49 -35.21343 -58.00570 11559 ft 294 kts 340°
2026-04-22 23:49 -35.19357 -58.01151 11219 ft 292 kts 340°
2026-04-22 23:49 -35.17379 -58.01730 10886 ft 291 kts 340°
2026-04-22 23:49 -35.15416 -58.02306 10569 ft 290 kts 340°
2026-04-22 23:50 -35.13481 -58.02871 10432 ft 281 kts 340°
2026-04-22 23:50 -35.11603 -58.03417 10296 ft 274 kts 340°
2026-04-22 23:50 -35.09777 -58.03947 10175 ft 266 kts 340°
2026-04-22 23:50 -35.07986 -58.04471 9898 ft 264 kts 340°
2026-04-22 23:51 -35.06203 -58.04994 9611 ft 263 kts 340°
2026-04-22 23:51 -35.04451 -58.05508 9322 ft 261 kts 340°
2026-04-22 23:51 -35.02683 -58.06025 9041 ft 260 kts 341°
2026-04-22 23:51 -35.00924 -58.06538 8771 ft 260 kts 341°
2026-04-22 23:52 -34.99168 -58.07050 8484 ft 259 kts 341°
2026-04-22 23:52 -34.97407 -58.07564 8217 ft 259 kts 341°
2026-04-22 23:52 -34.95655 -58.08075 7932 ft 259 kts 341°
2026-04-22 23:52 -34.93905 -58.08586 7658 ft 258 kts 341°
2026-04-22 23:53 -34.92158 -58.09096 7365 ft 258 kts 341°
2026-04-22 23:53 -34.90409 -58.09605 7091 ft 258 kts 341°
2026-04-22 23:53 -34.88663 -58.10112 6793 ft 259 kts 341°
2026-04-22 23:53 -34.86931 -58.10614 6503 ft 260 kts 342°
2026-04-22 23:54 -34.85171 -58.11126 6197 ft 260 kts 342°
2026-04-22 23:54 -34.83411 -58.11638 5908 ft 260 kts 342°
2026-04-22 23:54 -34.81655 -58.12149 5626 ft 260 kts 343°
2026-04-22 23:54 -34.79893 -58.12662 5342 ft 260 kts 343°
2026-04-22 23:55 -34.78130 -58.13172 5064 ft 260 kts 343°
2026-04-22 23:55 -34.76362 -58.13685 4778 ft 260 kts 344°
2026-04-22 23:55 -34.74627 -58.14187 4645 ft 253 kts 343°
2026-04-22 23:55 -34.72936 -58.14674 4520 ft 246 kts 343°
2026-04-22 23:56 -34.71299 -58.15173 4401 ft 238 kts 337°
2026-04-22 23:56 -34.70024 -58.16254 4287 ft 218 kts 305°
2026-04-22 23:56 -34.69159 -58.17697 4119 ft 208 kts 300°
2026-04-22 23:56 -34.68373 -58.19130 3938 ft 199 kts 299°
2026-04-22 23:57 -34.67617 -58.20506 3735 ft 193 kts 299°
2026-04-22 23:57 -34.66878 -58.21849 3417 ft 186 kts 299°
2026-04-22 23:57 -34.66181 -58.23108 3176 ft 173 kts 299°
2026-04-22 23:57 -34.65536 -58.24277 3013 ft 159 kts 299°
2026-04-22 23:58 -34.64940 -58.25354 2837 ft 151 kts 299°
2026-04-22 23:58 -34.64359 -58.26405 2684 ft 150 kts 299°
2026-04-22 23:58 -34.63779 -58.27449 2555 ft 148 kts 300°
2026-04-22 23:58 -34.63188 -58.28475 2432 ft 149 kts 300°
2026-04-22 23:59 -34.62592 -58.29530 2260 ft 154 kts 300°
2026-04-22 23:59 -34.61985 -58.30623 2062 ft 156 kts 300°
2026-04-22 23:59 -34.61391 -58.31716 1828 ft 154 kts 298°
2026-04-22 23:59 -34.60809 -58.32787 1645 ft 150 kts 300°
2026-04-23 00:00 -34.59678 -58.34820 1237 ft 143 kts 299°
2026-04-23 00:00 -34.59313 -58.35488 1126 ft 143 kts 299°
2026-04-23 00:00 -34.58579 -58.36846 887 ft 145 kts 301°
2026-04-23 00:01 -34.58007 -58.37860 665 ft 146 kts 303°
2026-04-23 00:01 -34.57453 -58.38855 446 ft 144 kts 303°
2026-04-23 00:01 -34.56894 -58.39846 253 ft 140 kts 304°
2026-04-23 00:01 -34.56351 -58.40815 59 ft 139 kts 303°
2026-04-23 00:02 -34.55844 -58.41732 25 ft 113 kts 304°
2026-04-23 00:02 -34.55545 -58.42257 27 ft 49 kts 304°
2026-04-23 00:02 -34.55430 -58.42465 29 ft 11 kts 304°
2026-04-23 00:02 -34.55402 -58.42509 29 ft 7 kts 325°
2026-04-23 00:03 -34.55366 -58.42481 27 ft 7 kts 60°
2026-04-23 00:03 -34.55364 -58.42425 27 ft 7 kts 100°
2026-04-23 00:03 -34.55375 -58.42370 28 ft 7 kts 113°
2026-04-23 00:03 -34.55401 -58.42325 25 ft 7 kts 126°
2026-04-23 00:04 -34.55431 -58.42274 25 ft 9 kts 126°
2026-04-23 00:04 -34.55473 -58.42208 28 ft 11 kts 128°
2026-04-23 00:04 -34.55527 -58.42122 27 ft 14 kts 126°
2026-04-23 00:04 -34.55589 -58.42022 25 ft 15 kts 126°
2026-04-23 00:05 -34.55645 -58.41915 24 ft 15 kts 126°
2026-04-23 00:05 -34.55703 -58.41815 24 ft 14 kts 124°
2026-04-23 00:05 -34.55752 -58.41715 26 ft 14 kts 115°
2026-04-23 00:05 -34.55792 -58.41614 28 ft 13 kts 117°
2026-04-23 00:06 -34.55833 -58.41519 24 ft 13 kts 117°
2026-04-23 00:06 -34.55872 -58.41427 26 ft 12 kts 117°
2026-04-23 00:06 -34.55905 -58.41350 24 ft 8 kts 117°
2026-04-23 00:06 -34.55893 -58.41303 28 ft 5 kts 33°
2026-04-23 00:07 -34.55866 -58.41284 24 ft 4 kts 39°
2026-04-23 00:07 -34.55860 -58.41261 29 ft 2 kts 76°
2026-04-23 00:07 -34.55852 -58.41245 24 ft 2 kts 49°
2026-04-23 00:07 -34.55840 -58.41233 24 ft 2 kts 40°
2026-04-23 00:08 -34.55829 -58.41222 24 ft 2 kts 39°
2026-04-23 00:08 -34.55823 -58.41216 24 ft 0 kts 39°